Regional Weather Roundup
Issued by NWS

Home | Current Version | Previous Version | Text Only | Print | Product List | Glossary On
Versions: 1 2 3 4 5 6 7 8 9 10 11 12 13 14 15 16 17 18 19 20 21 22 23 24 25 26 27 28 29 30 31 32 33 34 35 36 37 38 39 40 41 42 43 44 45 46 47 48 49 50
000
ASUS43 KDTX 040910
RWRMI
MICHIGAN HOURLY REGIONAL WEATHER ROUNDUP
NATIONAL WEATHER SERVICE DETROIT/PONTIAC MI
500 AM EDT FRI SEP 04 2015

NOTE: "FAIR" INDICATES FEW OR NO CLOUDS BELOW 12,000 FEET WITH NO
SIGNIFICANT WEATHER AND/OR OBSTRUCTION TO VISIBILITY.

MIZ047>049-052>055-059>063-066>070-074>076-081>083-041000-
SOUTHEAST LOWER MICHIGAN

CITY           SKY/WX    TMP DP  RH WIND       PRES   REMARKS
ADRIAN         MOCLDY    67  65  93 S5        29.97S
ALMA           CLOUDY    68  67  99 CALM      29.95S FOG
ANN ARBOR      CLOUDY    67  66  97 S5        29.97R
BAD AXE        CLOUDY    68  67  97 CALM      29.99R FOG
CARO           CLOUDY    67  67  98 E5        29.97R FOG
DETROIT CITY   CLOUDY    69  67  93 SW3       29.97R
DETROIT        CLOUDY    70  67  90 S7        29.97S
FLINT          MOCLDY    71  66  84 S9        29.95S
GROSSE ILE     CLOUDY    72  68  88 S12       29.96R
HILLSDALE      CLOUDY    69  69 100 S3        29.97S FOG
HOWELL         CLOUDY    67  67  97 S7        29.96S

CITY           SKY/WX    TMP DP  RH WIND       PRES   REMARKS
JACKSON        CLOUDY    70  68  93 S6        29.96R FOG
LAMBERTVILLE   CLOUDY    68  65  89 SE5       29.97S
LANSING        CLOUDY    69  68  96 SW6       29.96R FOG
LAPEER         CLOUDY    67  67  98 CALM      29.97S FOG
MASON          CLOUDY    69  66  91 S7        29.95F FOG
MONROE         CLOUDY    69  67  92 S7        29.96S
MT. CLEMENS    CLOUDY    69  67  96 SW2       29.95S
PONTIAC        MOCLDY    68  67  96 S5        29.97R
PORT HOPE        N/A     70  69  97 E12       29.98R
PORT HURON     CLOUDY    66  66 100 CALM      29.98R FOG
TRI CITIES     CLOUDY    68  66  93 NE5       29.97R FOG
MIDLAND        CLOUDY    68  67  96 E3        29.95S FOG
TROY           CLOUDY    69  68  97 CALM      29.98F FOG
SAGINAW HB     CLOUDY    66  66 100 NE5       29.96R FOG
$$
MIZ043>046-050>051-056>058-064>065-071>073-077>080-041000-
SOUTHWEST LOWER MICHIGAN

CITY           SKY/WX    TMP DP  RH WIND       PRES   REMARKS
BATTLE CREEK   CLOUDY    68  66  93 W9        29.97R FOG
BENTON HARBOR  CLOUDY    69  66  90 N5        29.97R
BIG RAPIDS     CLOUDY    67  66  97 E3        29.97R FOG
COLDWATER      CLOUDY    69  69 100 CALM      29.96S FOG
FREMONT        FOG       67  67 100 N3        29.96R VSB 1/2
HOLLAND        CLOUDY    70  67  90 W3        29.96S
GRAND RAPIDS   CLOUDY    69  68  96 W5        29.96R FOG
IONIA          CLOUDY    68  68  99 W5        29.95R FOG
KALAMAZOO      CLOUDY    68  65  90 NW7       29.97R
LUDINGTON      CLOUDY    71  69  93 CALM      29.96S
MARSHALL       CLOUDY    69  67  94 CALM      29.96R FOG
MOUNT PLEASANT CLOUDY    68  67  94 NE3       29.96R FOG
MUSKEGON       CLOUDY    70  65  84 NW6       29.96R
SOUTH HAVEN    CLOUDY    69  66  89 NW3       29.96S
$$
MIZ016>042-041000-
NORTHERN LOWER MICHIGAN

CITY           SKY/WX    TMP DP  RH WIND       PRES   REMARKS
ALPENA         LGT RAIN  68  67  96 CALM      30.00S VSB 3/4
BEAVER ISLAND  MOCLDY    66  63  87 E7        30.01R
BELLAIRE       CLOUDY    66  64  94 CALM      29.99R
CADILLAC       CLOUDY    66  65  96 CALM      29.98S
CHARLEVOIX     MOCLDY    68  64  85 E3        30.02S
FRANKFORT      CLOUDY    68  66  92 NE3       29.98S
GAYLORD        CLOUDY    65  65 100 E5        30.01S FOG
GRAYLING       CLOUDY    65  64  98 NE5       30.01R FOG
HARBOR SPRINGS MOCLDY    66  61  84 NE8       29.99S
HOUGHTON LAKE  CLOUDY    66  64  93 NE6       29.99S
MANISTEE       CLOUDY    68  63  83 NE7       29.98R
OSCODA         CLOUDY    68  67  99 E7        29.98S FOG
PELLSTON       PTCLDY    66  62  87 NE3       30.01F
ROGERS CITY    CLOUDY    66  63  90 NE3       30.02S
TRAVERSE CITY  CLOUDY    69  66  90 CALM      29.97S
$$
MIZ007>008-015-041000-
EASTERN UPPER MICHIGAN

CITY           SKY/WX    TMP DP  RH WIND       PRES   REMARKS
KINROSS        MOCLDY    66  57  72 NE6       30.04R
MACKINAC ISLAN MOCLDY    66  59  79 E9G16     30.02S
NEWBERRY       PTCLDY    61  59  93 N6        30.05R
S. S. MARIE    MOCLDY    66  56  70 E5        30.04S
MUNISING         N/A     58  55  90 S5        30.05R
$$
MIZ004>006-011>014-085-041000-
CENTRAL UPPER MICHIGAN

CITY           SKY/WX    TMP DP  RH WIND       PRES   REMARKS
MANISTIQUE     PTCLDY    60  58  92 N5        30.03R
ESCANABA       CLEAR     63  59  88 N5        30.01R
MENOMINEE      CLEAR     61  57  88 N5        30.00S
SAWYER-GWINN   CLEAR     55  53  92 N3        30.06S
$$
MIZ001>003-009>011-084-041000-
WESTERN UPPER MICHIGAN

CITY           SKY/WX    TMP DP  RH WIND       PRES   REMARKS
IRON MOUNTAIN  CLEAR     57  55  93 N3        30.04S
HOUGHTON       CLEAR     62  56  80 NE7       30.05S
COPPER HARBOR    N/A     64  57  78 VRB7      30.04S
IRONWOOD       CLEAR     63  63 100 CALM      30.01S
$$

ABBREVIATIONS USED IN REMARKS
   TC - TEMPERATURE IN CELSIUS
  WCI - WIND CHILL INDEX
   HX - HEAT INDEX
  VSB - VISIBILITY




USA.gov is the U.S. government's official web portal to all federal, state and local government web resources and services.